Cross City, FL

7:43 PM EST on February 23, 2018 (GMT -0500)
Cross City

Weather History for KCTY - February, 2014

Change the Weather History Date:

Sunday, February 9, 2014

  Actual Average Record
Temperature  
Mean Temperature 54 °F 56 °F  
Max Temperature 69 °F 69 °F 80 °F (1999)
Min Temperature 39 °F 43 °F 28 °F (2011)
Degree Days  
Heating Degree Days 11 9  
Month to date heating degree days 54 89  
Since 1 July heating degree days 853 967  
Cooling Degree Days 0 1  
Month to date cooling degree days 19 9  
Year to date cooling degree days 25 20  
Growing Degree Days 4 (Base 50)    
Moisture  
Dew Point 44 °F    
Average Humidity 79    
Maximum Humidity 100    
Minimum Humidity 40    
Precipitation  
Precipitation 0.00 in 0.07 in 0.11 in (2015)
Month to date precipitation 0.73 0.85  
Year to date precipitation 5.68 4.89  
Sea Level Pressure  
Sea Level Pressure 30.13 in    
Wind  
Wind Speed 2 mph (NNE)    
Max Wind Speed 10 mph    
Max Gust Speed 16 mph    
T = Trace of Precipitation, MM = Missing Value Source: NWS Daily Summary

Daily Weather History Graph

Daily Weather History Graph

Search for Another Location

Airport or City:

Trip Planner

Search our weather history database for the weather conditions in past years. The results will help you decide how hot, cold, wet, or windy it might be!

Date:

Astronomy

Feb. 09, 2014 Rise Set
Actual Time 7:16 AM EST 6:16 PM EST
Civil Twilight 6:52 AM EST 6:41 PM EST
Nautical Twilight 6:23 AM EST 7:09 PM EST
Astronomical Twilight 5:56 AM EST 7:37 PM EST
Moon 2:03 PM EST (2/9) 3:13 AM EST (2/9)
Length of Visible Light 11h 49m
Length of Day
11h 00m
Waxing Gibbous, 77% of the Moon is Illuminated
Feb 9
Waxing Gibbous
Feb 14
Full
Feb 22
Last Quarter
Mar 1
New
Mar 8
First Quarter

Hourly Weather History & Observations

Time (EST) Temp. Dew Point Humidity Pressure Visibility Wind Dir Wind Speed Gust Speed Precip Events Conditions
12:53 AM 41.0 °F 39.9 °F 96% 30.15 in - Calm Calm - N/A   Unknown
1:53 AM 39.9 °F 39.0 °F 97% 30.13 in - Calm Calm - N/A   Unknown
2:53 AM 39.9 °F 39.0 °F 97% 30.12 in - Calm Calm - N/A   Unknown
3:53 AM 39.0 °F 37.9 °F 96% 30.12 in - Calm Calm - N/A   Unknown
4:53 AM 42.1 °F 41.0 °F 96% 30.11 in - Calm Calm - N/A   Unknown
5:53 AM 39.9 °F 39.9 °F 100% 30.12 in - Calm Calm - N/A   Unknown
6:53 AM 39.9 °F 39.9 °F 100% 30.15 in - Calm Calm - N/A   Unknown
7:53 AM 39.9 °F 39.9 °F 100% 30.16 in - Calm Calm - N/A   Unknown
8:53 AM 45.0 °F 45.0 °F 100% 30.19 in - Calm Calm - N/A   Unknown
9:53 AM 53.1 °F 51.1 °F 93% 30.20 in - NNE 3.5 mph - N/A   Unknown
10:53 AM 59.0 °F 51.1 °F 75% 30.19 in - ENE 3.5 mph - N/A   Unknown
11:53 AM 62.1 °F 48.0 °F 60% 30.17 in - North 6.9 mph - N/A   Unknown
12:53 PM 64.9 °F 46.9 °F 52% 30.15 in - Variable 4.6 mph - N/A   Unknown
1:53 PM 66.0 °F 45.0 °F 47% 30.11 in - NNE 8.1 mph - N/A   Unknown
2:53 PM 69.1 °F 44.1 °F 40% 30.09 in - Variable 3.5 mph - N/A   Unknown
3:53 PM 68.0 °F 45.0 °F 43% 30.08 in - NE 5.8 mph - N/A   Unknown
4:53 PM 68.0 °F 46.0 °F 45% 30.08 in - North 4.6 mph - N/A   Unknown
5:53 PM 64.9 °F 46.0 °F 50% 30.09 in - Calm Calm - N/A   Unknown
6:53 PM 55.9 °F 48.9 °F 77% 30.11 in - WNW 3.5 mph - N/A   Unknown
7:53 PM 53.1 °F 48.0 °F 83% 30.11 in - Calm Calm - N/A   Unknown
8:53 PM 48.9 °F 46.9 °F 93% 30.12 in - Calm Calm - N/A   Unknown
9:53 PM 46.9 °F 45.0 °F 93% 30.12 in - Calm Calm - N/A   Unknown
10:53 PM 45.0 °F 43.0 °F 93% 30.11 in - Calm Calm - N/A   Unknown
11:53 PM 44.1 °F 42.1 °F 93% 30.11 in - Calm Calm - N/A   Unknown